Retour au catalogue

STARLINK-34659

ActifCommunicationsVLEO
NORAD 64913·PAYLOAD·🇺🇸 United States

Lancé Jul 26, 2025 depuis Cape Canaveral Space Force Station

Loading…

Prochains Passages (prochaines 24 heures)

TLE

FraisSource: CelesTrak SupGP

Époque: Sep 14, 2026, 20:44 UTC

1 64913C 25157K   26257.86437500  .00005704  00000+0  18336-3 0  2574
2 64913  53.1575 185.4102 0001325  91.2460 112.9940 15.31709626    12

Suivez STARLINK-34659 en temps réel avec AllMySat

Download on the App Store